[[{"header":{"parameterUnit":"m.s-1","parameterCategory":1,"la1":30.2991,"la2":30.254,"lo1":-89.0895,"lo2":-89.0444,"dy":0.0017,"dx":0.0017,"nx":28,"ny":28,"refTime":"2023-09-09T21:00:00:Z","depth":0,"parameterNumber":2,"parameterNumberName":"U-component_of_WINDS"},"data":[0,0,0,0,0,0,0,0,0,0,0,0,0,0,0,0,0,0,0,0,0,0,0,0,0,0,0,0,0,0,0,0,0,0,0,0,0,0,0,0,0,0,0,0,0,0,0,0,0,0,0,0,0,0,0,0,0,0,-0.7445,-0.7444,0,-0.7359,-0.7358,-0.7357,-0.7291,-0.7291,-0.729,-0.729,-0.7201,-0.7199,-0.7197,0,0,0,0,0,0,0,0,0,0,0,0,0,-0.7555,-0.7553,-0.7445,-0.7444,-0.7443,-0.7359,-0.7358,-0.7356,-0.7292,-0.7291,-0.729,-0.7289,-0.7201,-0.7199,-0.7197,0,0,0,0,0,0,0,0,0,0,0,0,0,-0.7492,-0.7553,-0.7445,-0.74,-0.7395,-0.7359,-0.7358,-0.7356,-0.7292,-0.7291,-0.729,-0.7289,-0.7202,-0.72,-0.7197,-0.7198,0,0,-0.7189,-0.7187,0,0,0,0,0,0,0,0,-0.7496,-0.7488,-0.7408,-0.7403,-0.7398,-0.7335,-0.7364,-0.7303,-0.7292,-0.7331,-0.729,-0.7289,-0.7246,-0.724,-0.7225,-0.7194,-0.719,-0.7188,-0.7187,-0.7185,-0.7185,0,0,0,0,0,0,0,-0.75,-0.7491,-0.7411,-0.7407,-0.7401,-0.7385,-0.7375,-0.7352,-0.7295,-0.7328,-0.7323,-0.7313,-0.7243,-0.7228,-0.7223,-0.7189,-0.7188,-0.7186,-0.7184,-0.7183,-0.7156,-0.7156,0,0,0,0,0,0,-0.7511,-0.7495,-0.7413,-0.7408,-0.7445,-0.7384,-0.7373,-0.7356,-0.7295,-0.7285,-0.7314,-0.7311,-0.7233,-0.7226,-0.722,-0.7218,-0.7185,-0.7183,-0.7181,-0.7155,-0.7156,-0.7157,0,0,0,0,0,0,-0.7514,-0.7505,-0.7417,-0.745,-0.7438,-0.7383,-0.7365,-0.7355,-0.734,-0.7285,-0.7274,-0.7309,-0.7232,-0.7223,-0.7204,-0.7214,-0.7182,-0.7179,-0.7154,-0.7155,-0.7156,-0.7214,0,0,0,0,0,0,-0.7517,-0.7506,-0.7505,-0.7451,-0.7437,-0.7403,-0.7365,-0.7354,-0.7335,-0.733,-0.7277,-0.7268,-0.7231,-0.7209,-0.7202,-0.721,-0.7177,-0.7153,-0.7154,-0.7156,-0.7211,-0.7217,-0.7223,0,0,0,0,0,-0.7521,-0.7524,-0.7505,-0.7496,-0.7434,-0.7404,-0.7395,-0.7353,-0.7336,-0.7336,-0.7301,-0.7269,-0.7214,-0.7207,-0.7199,-0.7206,-0.7152,-0.7154,-0.7156,-0.7209,-0.7216,-0.7223,0,0,0,0,0,0,-0.758,-0.7516,-0.7495,-0.748,-0.7448,-0.7393,-0.739,-0.7362,-0.7334,-0.733,-0.7279,-0.7267,-0.7254,-0.7228,-0.7221,-0.7205,-0.7179,-0.718,-0.7222,-0.7229,-0.7235,-0.7241,-0.7175,0,0,0,0,0,-0.7592,-0.7572,-0.7517,-0.751,-0.7495,-0.7446,-0.743,-0.7401,-0.7365,-0.7351,-0.7315,-0.7282,-0.7257,-0.7241,-0.7215,-0.7207,-0.7196,-0.7209,-0.7214,-0.7219,-0.722,-0.7216,-0.7221,-0.7163,-0.7163,-0.7163,0,0,-0.7615,-0.7578,-0.7568,-0.7521,-0.7492,-0.7473,-0.7434,-0.7415,-0.7401,-0.7348,-0.7328,-0.7301,-0.726,-0.7248,-0.724,-0.7225,-0.7234,-0.7222,-0.7226,-0.7224,-0.7219,-0.7224,-0.7229,-0.7165,-0.7165,-0.7164,0,0,-0.7648,-0.7617,-0.7608,-0.7581,-0.7539,-0.7507,-0.7505,-0.7454,-0.7434,-0.7413,-0.7374,-0.7357,-0.7315,-0.7288,-0.7269,-0.7295,-0.7266,-0.7288,-0.7318,-0.7314,-0.7319,-0.7323,-0.7333,-0.7337,-0.7289,-0.7289,-0.7289,0,-0.7682,-0.7651,-0.7607,-0.7591,-0.7572,-0.7525,-0.7516,-0.7492,-0.7443,-0.7432,-0.7416,-0.7364,-0.7334,-0.7315,-0.7321,-0.7307,-0.7304,-0.7293,-0.7322,-0.7325,-0.7328,-0.7337,-0.7341,-0.7292,-0.7292,-0.7292,-0.7291,0,-0.7696,-0.7676,-0.7674,-0.7629,-0.761,-0.7598,-0.7553,-0.7539,-0.7512,-0.7481,-0.7462,-0.7424,-0.7391,-0.7384,-0.7357,-0.7362,-0.7355,-0.7331,-0.7304,-0.7337,-0.7345,-0.7348,-0.7297,-0.7296,-0.7295,-0.7294,0,0,-0.7762,-0.7695,-0.7695,-0.7675,-0.7626,-0.761,-0.7596,-0.7564,-0.7554,-0.7523,-0.7511,-0.7478,-0.7457,-0.7435,-0.7405,-0.7402,-0.7427,-0.7379,-0.7378,-0.739,-0.7432,-0.745,-0.7455,-0.7408,-0.7408,-0.7408,-0.7436,0,-0.7787,-0.776,-0.7721,-0.7707,-0.7689,-0.7645,-0.7633,-0.7603,-0.7575,-0.7556,-0.7525,-0.7503,-0.7476,-0.7463,-0.7458,-0.7425,-0.7435,-0.7422,-0.7397,-0.7396,-0.7408,-0.7458,-0.7477,-0.7504,-0.7438,-0.7439,-0.7439,0,-0.7813,-0.7785,-0.777,-0.7725,-0.7715,-0.7706,-0.7674,-0.7656,-0.7621,-0.7601,-0.7579,-0.7547,-0.7532,-0.7508,-0.7487,-0.748,-0.7467,-0.745,-0.745,-0.7445,-0.742,-0.7456,-0.7511,-0.7516,-0.7443,-0.7443,-0.7443,0,-0.7864,-0.7823,-0.7809,-0.7793,-0.7739,-0.7734,-0.7711,-0.7675,-0.7659,-0.7632,-0.7621,-0.7593,-0.7577,-0.7556,-0.7518,-0.7504,-0.7502,-0.7474,-0.7485,-0.7486,-0.7486,-0.7487,-0.7541,-0.7478,-0.7478,-0.7478,-0.7478,0,-0.7896,-0.7889,-0.7831,-0.7822,-0.7813,-0.7769,-0.7762,-0.7735,-0.7704,-0.769,-0.7651,-0.7639,-0.7588,-0.7571,-0.7541,-0.7529,-0.7522,-0.7506,-0.7498,-0.751,-0.7512,-0.75,-0.7498,-0.7479,-0.7479,-0.7478,-0.7478,0,-0.7951,-0.7912,-0.7894,-0.7845,-0.7833,-0.7829,-0.7787,-0.7778,-0.7749,-0.7732,-0.7725,-0.7679,-0.7657,-0.7617,-0.7583,-0.7563,-0.7557,-0.7543,-0.7569,-0.7564,-0.7578,-0.7578,-0.7627,-0.7632,-0.7566,-0.7567,-0.7567,0,-0.7975,-0.7968,-0.7919,-0.7907,-0.7887,-0.7868,-0.7852,-0.7809,-0.7793,-0.7755,-0.7751,-0.7725,-0.7702,-0.7669,-0.7633,-0.7607,-0.7593,-0.7612,-0.7588,-0.7601,-0.7594,-0.7595,-0.7595,-0.7617,-0.7618,-0.7619,-0.7619,0,-0.8021,-0.8002,-0.798,-0.7952,-0.7935,-0.791,-0.7884,-0.7877,-0.7828,-0.7814,-0.7791,-0.7773,-0.774,-0.7715,-0.7685,-0.7662,-0.7633,-0.7627,-0.7629,-0.764,-0.7656,-0.7649,-0.7584,-0.7626,-0.7625,-0.7625,-0.7625,-0.7624,-0.8061,-0.8054,-0.8019,-0.7996,-0.7973,-0.795,-0.7939,-0.7909,-0.7889,-0.7858,-0.7834,-0.7814,-0.7781,-0.7737,-0.7717,-0.7701,-0.7687,-0.7689,-0.7689,-0.769,-0.7696,-0.7659,-0.7695,-0.7695,-0.7694,-0.7694,-0.7694,0,-0.8106,-0.8082,-0.8062,-0.8027,-0.801,-0.7985,-0.7955,-0.7942,-0.7925,-0.7897,-0.7876,-0.7851,-0.7828,-0.7791,-0.7765,-0.7759,-0.7746,-0.7754,-0.7754,-0.775,-0.7709,-0.7711,-0.7766,-0.7766,-0.7766,-0.7766,-0.7766,-0.7766,-0.8127,-0.8114,-0.8092,-0.8068,-0.8043,-0.8023,-0.8008,-0.7988,-0.7965,-0.7939,-0.792,-0.7896,-0.7865,-0.7837,-0.7816,-0.7805,-0.7798,-0.7811,-0.7797,-0.7759,-0.7752,-0.7746,-0.7747,-0.781,-0.781,-0.7839,-0.7839,-0.784]},{"header":{"parameterUnit":"m.s-1","parameterCategory":1,"la1":30.2991,"la2":30.254,"lo1":-89.0895,"lo2":-89.0444,"dy":0.0017,"dx":0.0017,"nx":28,"ny":28,"refTime":"2023-09-09T21:00:00:Z","depth":0,"parameterNumber":3,"parameterNumberName":"V-component_of_WINDS"},"data":[0,0,0,0,0,0,0,0,0,0,0,0,0,0,0,0,0,0,0,0,0,0,0,0,0,0,0,0,0,0,0,0,0,0,0,0,0,0,0,0,0,0,0,0,0,0,0,0,0,0,0,0,0,0,0,0,0,0,3.0769,3.0769,0,3.0747,3.0746,3.0746,3.0795,3.0797,3.0799,3.08,3.0771,3.0769,3.0766,0,0,0,0,0,0,0,0,0,0,0,0,0,3.0849,3.0847,3.0769,3.0769,3.0768,3.0747,3.0746,3.0746,3.0795,3.0797,3.0799,3.0801,3.0772,3.0769,3.0766,0,0,0,0,0,0,0,0,0,0,0,0,0,3.0819,3.0847,3.0769,3.079,3.0792,3.0747,3.0746,3.0746,3.0795,3.0797,3.0799,3.0802,3.0772,3.0769,3.0766,3.0697,0,0,3.0755,3.0754,0,0,0,0,0,0,0,0,3.082,3.0816,3.0787,3.0789,3.0791,3.0776,3.0764,3.0729,3.0794,3.0793,3.08,3.0803,3.077,3.0767,3.0758,3.0695,3.0694,3.0755,3.0753,3.0752,3.0751,0,0,0,0,0,0,0,3.0822,3.0817,3.076,3.0787,3.0789,3.0799,3.0798,3.0757,3.0768,3.0794,3.0797,3.0794,3.0772,3.0761,3.0757,3.0693,3.0755,3.0752,3.075,3.0749,3.0573,3.0571,0,0,0,0,0,0,3.0823,3.0818,3.0761,3.0759,3.0812,3.0796,3.0794,3.0778,3.0769,3.077,3.0792,3.0797,3.0765,3.0761,3.0756,3.0674,3.0752,3.0748,3.0746,3.0576,3.0572,3.057,0,0,0,0,0,0,3.0824,3.0817,3.0761,3.079,3.0784,3.0792,3.0774,3.0777,3.0766,3.0768,3.077,3.0779,3.0767,3.0761,3.0711,3.0674,3.0747,3.0744,3.0579,3.0575,3.0571,3.051,0,0,0,0,0,0,3.0826,3.0817,3.0792,3.0789,3.0782,3.0718,3.0772,3.0774,3.0761,3.0766,3.0756,3.0757,3.0769,3.0716,3.0708,3.0671,3.0741,3.0582,3.0577,3.0572,3.0515,3.0504,3.0495,0,0,0,0,0,3.0829,3.0774,3.0791,3.0783,3.0751,3.0716,3.0712,3.0728,3.0757,3.0731,3.0733,3.0757,3.068,3.0711,3.0702,3.0663,3.0584,3.0578,3.0573,3.052,3.0507,3.0495,0,0,0,0,0,0,3.077,3.0774,3.0792,3.0736,3.0725,3.0725,3.0692,3.0713,3.0693,3.0699,3.0718,3.0715,3.0661,3.0657,3.0692,3.0595,3.0637,3.0629,3.06,3.0587,3.0577,3.0579,3.0738,0,0,0,0,0,3.0752,3.0725,3.0729,3.0678,3.0673,3.0683,3.0668,3.0682,3.0671,3.0667,3.0664,3.0651,3.0624,3.0606,3.0581,3.0516,3.0514,3.0484,3.0474,3.0466,3.0458,3.0423,3.041,3.055,3.055,3.055,0,0,3.0711,3.071,3.0691,3.0667,3.066,3.063,3.0679,3.0645,3.0623,3.0661,3.0614,3.0612,3.0599,3.0541,3.0516,3.0536,3.042,3.0459,3.0452,3.0449,3.0416,3.0402,3.0391,3.0546,3.0547,3.0548,0,0,3.0622,3.0619,3.0576,3.057,3.056,3.0568,3.0558,3.0554,3.0555,3.0509,3.0537,3.051,3.0463,3.0452,3.0441,3.0349,3.037,3.034,3.0287,3.0252,3.0241,3.0231,3.0198,3.0186,3.0333,3.0333,3.0333,0,3.0572,3.053,3.0551,3.0516,3.0504,3.054,3.0496,3.0488,3.047,3.046,3.0484,3.0426,3.042,3.036,3.0338,3.0327,3.0315,3.0341,3.0241,3.0232,3.0223,3.0191,3.0178,3.0329,3.033,3.033,3.033,0,3.0468,3.0439,3.0405,3.039,3.0374,3.0334,3.0348,3.0329,3.0345,3.0349,3.0302,3.0296,3.027,3.0258,3.0271,3.0199,3.0213,3.0239,3.028,3.0206,3.0176,3.0164,3.0324,3.0325,3.0326,3.0327,0,0,3.034,3.0338,3.0325,3.0319,3.0312,3.0288,3.025,3.0228,3.0211,3.0197,3.0165,3.0125,3.015,3.0137,3.0149,3.0119,3.0046,3.0149,3.0149,3.0129,2.9966,2.9945,2.9931,3.0061,3.0059,3.0057,2.9967,0,3.0251,3.0188,3.0206,3.0142,3.0114,3.0149,3.0115,3.0106,3.011,3.0086,3.0089,3.006,3.0096,3.0088,3.006,3.0061,3.0013,3.0068,3.0029,3.0028,3.003,2.9916,2.9894,2.9809,2.9955,2.9953,2.9952,0,3.0138,3.0123,3.0057,3.0055,3.0044,3.0014,2.9995,2.9972,2.9962,2.9967,2.9953,2.9973,2.9934,2.9977,2.9923,2.996,2.9945,2.9943,2.994,2.9936,2.9984,2.9907,2.9782,2.9769,2.9934,2.9936,2.9937,0,3.005,3.0013,2.9968,2.9962,2.9959,2.9937,2.9934,2.9928,2.9913,2.9896,2.9886,2.9864,2.9851,2.9833,2.9845,2.9876,2.9788,2.9833,2.979,2.9789,2.9768,2.9769,2.9638,2.9761,2.9761,2.9761,2.9762,0,2.9948,2.9906,2.9929,2.9901,2.9854,2.9876,2.9829,2.983,2.9824,2.9796,2.9824,2.9796,2.9815,2.9789,2.9798,2.9751,2.9745,2.9747,2.9749,2.9744,2.9743,2.9733,2.9739,2.9758,2.9759,2.9759,2.976,0,2.9841,2.9855,2.9809,2.9811,2.981,2.9776,2.9776,2.975,2.9757,2.9721,2.9714,2.9723,2.9694,2.9705,2.9673,2.9679,2.9619,2.963,2.9623,2.9625,2.9581,2.9585,2.9438,2.9419,2.9555,2.9554,2.9553,0,2.9775,2.9743,2.9742,2.9727,2.9723,2.9697,2.9683,2.9703,2.9687,2.9675,2.9649,2.9623,2.9603,2.9555,2.9557,2.9533,2.9543,2.9493,2.9539,2.9535,2.9541,2.9543,2.9539,2.9483,2.9482,2.9481,2.948,0,2.9655,2.9664,2.9643,2.9625,2.9608,2.9595,2.9583,2.9568,2.9588,2.9568,2.954,2.9525,2.9494,2.9466,2.9445,2.9441,2.9462,2.9465,2.9454,2.9447,2.9444,2.9444,2.9597,2.9468,2.9469,2.947,2.9471,2.9471,2.9565,2.9539,2.9535,2.9511,2.9505,2.9494,2.947,2.9474,2.9452,2.9429,2.9442,2.9409,2.94,2.9375,2.9367,2.934,2.936,2.9343,2.9339,2.9334,2.9328,2.9449,2.9337,2.9337,2.9337,2.9338,2.9338,0,2.9446,2.9445,2.9424,2.9408,2.9389,2.9415,2.9403,2.9385,2.9356,2.9348,2.9328,2.9296,2.927,2.9272,2.9248,2.9226,2.9235,2.9219,2.922,2.9218,2.9313,2.9325,2.9212,2.9212,2.9212,2.9212,2.9212,2.9212,2.9381,2.9338,2.9347,2.9301,2.93,2.927,2.9261,2.9251,2.9244,2.9207,2.9187,2.9189,2.9184,2.916,2.9137,2.9138,2.9128,2.9107,2.9112,2.9199,2.9212,2.9224,2.9235,2.9105,2.9105,2.902,2.9019,2.9018]}]]